Weather History for Beverly, MA

Change the Weather History Date:

Friday, December 28, 2012

  Actual Average Record
Temperature  
Mean Temperature 32 °F -  
Max Temperature 37 °F 35 °F 60 °F (2008)
Min Temperature 28 °F 20 °F 7 °F (2004)
Degree Days  
Heating Degree Days 32    
Moisture  
Dew Point 21 °F    
Average Humidity 65    
Maximum Humidity 79    
Minimum Humidity 54    
Precipitation  
Precipitation 0.00 in - - ()
Sea Level Pressure  
Sea Level Pressure 29.85 in    
Wind  
Wind Speed 13 mph (WNW)    
Max Wind Speed 18 mph    
Max Gust Speed 30 mph    
Visibility 10 miles    
Events      
Averages and records for this station are not official NWS values.
T = Trace of Precipitation, MM = Missing Value Source: NWS Daily Summary

Daily Weather History Graph

Daily Weather History Graph

Search for Another Location

Airport:

Trip Planner

Search our weather history database for the weather conditions in past years. The results will help you decide how hot, cold, wet, or windy it might be!

Date:

Astronomy

Dec. 28, 2012 Rise Set
Actual Time 7:13 AM EST 4:18 PM EST
Civil Twilight 6:41 AM EST 4:50 PM EST
Nautical Twilight 6:05 AM EST 5:25 PM EST
Astronomical Twilight 5:31 AM EST 5:59 PM EST
Moon 4:53 PM EST (12/28) 7:04 AM EST (12/28)
Length of Visible Light 10h 09m
Length of Day
9h 04m
Full, 100% of the Moon is Illuminated
Dec 28
Full
Jan 4
Last Quarter
Jan 11
New
Jan 18
First Quarter
Jan 26
Full

Hourly Weather History & Observations

Time (EST) Temp. Windchill Dew Point Humidity Pressure Visibility Wind Dir Wind Speed Gust Speed Precip Events Conditions
12:53 AM 32.0 °F 22.1 °F 26.1 °F 79% 29.61 in 10.0 mi NW 13.8 mph 21.9 mph N/A   Overcast
1:14 AM 32.0 °F 22.1 °F 24.8 °F 75% 29.62 in 10.0 mi WNW 13.8 mph 21.9 mph N/A   Overcast
1:53 AM 30.9 °F 22.2 °F 24.1 °F 76% 29.65 in 10.0 mi NW 10.4 mph 20.7 mph N/A   Overcast
2:53 AM 30.0 °F 18.3 °F 21.0 °F 69% 29.68 in 10.0 mi WNW 17.3 mph 24.2 mph N/A   Overcast
3:53 AM 28.9 °F 17.3 °F 21.0 °F 72% 29.71 in 10.0 mi NW 16.1 mph 24.2 mph N/A   Overcast
4:53 AM 28.9 °F 17.3 °F 19.0 °F 67% 29.73 in 10.0 mi NW 16.1 mph 28.8 mph N/A   Mostly Cloudy
5:53 AM 28.4 °F 17.0 °F 17.6 °F 64% 29.77 in 10.0 mi NW 15.0 mph 23.0 mph N/A   Clear
6:53 AM 28.0 °F 16.1 °F 18.0 °F 66% 29.78 in 10.0 mi NW 16.1 mph 23.0 mph N/A   Clear
7:53 AM 28.0 °F 16.1 °F 18.0 °F 66% 29.81 in 10.0 mi WNW 16.1 mph 21.9 mph N/A   Clear
8:53 AM 30.0 °F 20.0 °F 18.0 °F 61% 29.86 in 10.0 mi NW 12.7 mph 21.9 mph N/A   Clear
9:53 AM 32.0 °F 20.8 °F 19.0 °F 59% 29.88 in 10.0 mi NW 17.3 mph 25.3 mph N/A   Clear
10:53 AM 34.0 °F 23.0 °F 21.0 °F 59% 29.87 in 10.0 mi WNW 18.4 mph 25.3 mph N/A   Scattered Clouds
11:53 AM 34.0 °F 23.4 °F 21.0 °F 59% 29.86 in 10.0 mi NW 17.3 mph 29.9 mph N/A   Clear
12:53 PM 36.0 °F 26.3 °F 21.9 °F 57% 29.86 in 10.0 mi NW 16.1 mph 25.3 mph N/A   Clear
1:53 PM 37.0 °F 28.1 °F 21.9 °F 54% 29.88 in 10.0 mi NW 15.0 mph 23.0 mph N/A   Partly Cloudy
2:53 PM 36.0 °F 26.3 °F 21.0 °F 55% 29.90 in 10.0 mi WNW 16.1 mph 28.8 mph N/A   Partly Cloudy
3:53 PM 35.1 °F 27.9 °F 21.9 °F 59% 29.90 in 10.0 mi WNW 9.2 mph - N/A   Clear
4:53 PM 33.1 °F 26.9 °F 21.0 °F 61% 29.94 in 10.0 mi West 6.9 mph - N/A   Clear
5:53 PM 32.0 °F 25.6 °F 21.0 °F 64% 29.96 in 10.0 mi WNW 6.9 mph - N/A   Clear
6:53 PM 32.0 °F 26.4 °F 21.0 °F 64% 29.97 in 10.0 mi West 5.8 mph - N/A   Clear
7:53 PM 30.9 °F 26.2 °F 21.0 °F 67% 29.97 in 10.0 mi West 4.6 mph - N/A   Clear
8:53 PM 32.0 °F 28.7 °F 21.9 °F 66% 29.99 in 10.0 mi WNW 3.5 mph - N/A   Partly Cloudy
9:53 PM 30.0 °F 25.2 °F 21.0 °F 69% 29.97 in 10.0 mi West 4.6 mph - N/A   Scattered Clouds
10:53 PM 30.2 °F 25.4 °F 21.2 °F 69% 29.99 in 10.0 mi WNW 4.6 mph - N/A   Partly Cloudy
11:53 PM 28.9 °F 25.2 °F 21.0 °F 72% 29.98 in 10.0 mi WNW 3.5 mph - N/A   Clear